Regional Weather Roundup
Issued by NWS

Home | Current Version | Previous Version | Graphics & Text | Print | Product List | Glossary On
Versions: 1 2 3 4 5 6 7 8 9 10 11 12 13 14 15 16 17 18 19 20 21 22 23 24 25 26 27 28 29 30 31 32 33 34 35 36 37 38 39 40 41 42 43 44 45 46 47 48 49 50
000
ASUS43 KOAX 112110
RWRNE

WEATHER ROUNDUP FOR NEBRASKA
NATIONAL WEATHER SERVICE OMAHA NE
300 PM CST MON DEC 11 2017

NOTES: SATELLITE DATA IS BEING USED TO AUGMENT CLOUD COVER ABOVE
       12000 FEET.
       "FAIR" INDICATES FEW OR NO CLOUDS BELOW 12,000 FEET WITH NO
       SIGNIFICANT WEATHER AND/OR OBSTRUCTIONS TO VISIBILITY.


NEZ001>004-019>022-054>056-112200-
NEBRASKA PANHANDLE

CITY           SKY/WX    TMP DP  RH WIND       PRES   REMARKS
SCOTTSBLUFF    CLOUDY    50  13  22 NW22G35   30.34R
ALLIANCE       SUNNY     49  10  20 NW25G32   30.29R
CHADRON        MOSUNNY   47  14  26 NW21G29   30.33R
GORDON         MOCLDY    41  24  50 N28G37    30.27S
KIMBALL        SUNNY     51  10  19 NW23G32   30.33S
SIDNEY         SUNNY     53  10  18 N32G41    30.31R
$$

NEZ057>060-069>072-079>082-112200-
SOUTHWEST NEBRASKA

CITY           SKY/WX    TMP DP  RH WIND       PRES   REMARKS
NORTH PLATTE   SUNNY     50  24  36 N21G32    30.23S
IMPERIAL       CLOUDY    52  10  18 N25G35    30.25R
LEXINGTON      SUNNY     49  25  38 N31G40    30.21R
MCCOOK         CLOUDY    52  19  27 N32G44    30.23R
OGALLALA       CLOUDY    51  14  23 N23G29    30.27R
$$

NEZ005>010-023>029-035>040-094-112200-
NORTH CENTRAL NEBRASKA

CITY           SKY/WX    TMP DP  RH WIND       PRES   REMARKS
VALENTINE      LGT RAIN  40  29  64 NW16      30.27R WCI  31
AINSWORTH      CLOUDY    38  30  72 N24G32    30.24R WCI  27
BROKEN BOW     CLOUDY    43  28  55 N29G37    30.22R
O`NEILL        CLOUDY    38  33  82 N26G44    30.20R WCI  27
ORD            CLOUDY    41  28  60 N30G40    30.19R
THEDFORD       CLOUDY    43  28  56 N22G38    30.26R
$$

NEZ041-046>049-061>064-073>077-083>087-112200-
SOUTH CENTRAL NEBRASKA

CITY           SKY/WX    TMP DP  RH WIND       PRES   REMARKS
GRAND ISLAND   CLOUDY    43  30  60 NW26G38   30.18R
AURORA         CLOUDY    45  29  55 NW32G39   30.16R
HASTINGS       CLOUDY    45  27  49 NW28G41   30.18R
HEBRON         CLOUDY    49  28  43 NW20G32   30.15R
HOLDREGE       SUNNY     49  27  42 N24G35    30.20R
KEARNEY        CLOUDY    45  27  49 N25G37    30.20R
YORK           CLOUDY    45  28  53 NW21G39   30.13R
$$

NEZ011>018-030>034-042>045-112200-
NORTHEAST NEBRASKA

CITY           SKY/WX    TMP DP  RH WIND       PRES   REMARKS
NORFOLK        CLOUDY    40  34  79 NW30G38   30.11R WCI  28
ALBION         CLOUDY    43  32  65 NW28G37   30.14R
BLAIR          CLOUDY    44  34  68 NW28G40   30.04R
COLUMBUS       CLOUDY    44  31  60 NW32G40   30.12R
FREMONT        CLOUDY    44  32  63 NW31G40   30.09R
TEKAMAH        CLOUDY    43  31  62 NW32G44   30.06R
WAYNE          CLOUDY    39  32  75 N25G38    30.10R WCI  28
$$

NEZ050>053-065>068-078-088>093-112200-
SOUTHEAST NEBRASKA

CITY           SKY/WX    TMP DP  RH WIND       PRES   REMARKS
LINCOLN        CLOUDY    47  31  53 N28G36    30.11R
OMAHA EPPLEY   CLOUDY    45  32  60 NW31G41   30.03R
BEATRICE       CLOUDY    48  31  51 NW26G38   30.10R
FALLS CITY     CLOUDY    50  30  46 NW26G36   30.04R
NEBRASKA CITY  CLOUDY    47  32  56 NW26G37   30.04R
PLATTSMOUTH    CLOUDY    46  33  61 NW24G35   30.04R
$$

NEZ044-045-051>053-067-112200-
OMAHA AREA

CITY           SKY/WX    TMP DP  RH WIND       PRES   REMARKS
OMAHA EPPLEY   CLOUDY    45  32  60 NW31G41   30.03R
BLAIR          CLOUDY    44  34  68 NW28G40   30.04R
FREMONT        CLOUDY    44  32  63 NW31G40   30.09R
MILLARD        CLOUDY    47  34  60 NW24G32   30.06R
OFFUTT AFB     CLOUDY    46  32  59 NW24G37   30.04R
PLATTSMOUTH    CLOUDY    46  33  61 NW24G35   30.04R
WAHOO          CLOUDY    45  32  59 NW29G37   30.07R
$$




USA.gov is the U.S. government's official web portal to all federal, state and local government web resources and services.